User: anonymous   Login
Location: Wellington
(41.3000°S, 174.7830°E)
Time: 01:18:17
(UTC+13:00)
Language:

USA 32 - Orbit

View from above orbital plane
View from above orbital plane
View from above satellite
View from above satellite

Ground track
Ground track

The orbit data is extracted from the following two-line orbital elements,

1 19460U 88078A   19291.45697577 0.00000010  00000-0  36246-5 0    03
2 19460  84.9803  86.6793 0004406 347.1672  12.8327 14.33479742    04
Epoch (UTC): 18 October 2019 10:58:02
Eccentricity: 0.0004406
inclination: 84.9803°
perigee height: 777 km
apogee height: 783 km
right ascension of ascending node: 86.6793°
argument of perigee: 347.1672°
revolutions per day: 14.33479742
mean anomaly at epoch: 12.8327°
orbit number at epoch: 0

The dashed part of the orbit path shows where the satellite is in the earth's shadow,  

DLR